User: anonymous   Login
Location: *
(17.3280°S, 114.7300°W)
Time: 07:23:52
(UTC+00:00)
Language:

ATLAS 2AS CENTAUR R/B - Orbit

View from above orbital plane
View from above orbital plane
View from above satellite
View from above satellite

Ground track
Ground track

The orbit data is extracted from the following two-line orbital elements,

1 28096U 03054B   20293.74798205 0.00000000  00000-0  00000-0 0    08
2 28096  63.6758 213.1560 0223320 225.3340 134.6659 13.40863065    01
Epoch (UTC): 19 October 2020 17:57:05
Eccentricity: 0.0223320
inclination: 63.6758°
perigee height: 939 km
apogee height: 1273 km
right ascension of ascending node: 213.1560°
argument of perigee: 225.3340°
revolutions per day: 13.40863065
mean anomaly at epoch: 134.6659°
orbit number at epoch: 0

The dashed part of the orbit path shows where the satellite is in the earth's shadow,  

DLR